Time,TemperatureF,DewpointF,PressureIn,WindDirection,WindDirectionDegrees,WindSpeedMPH,WindSpeedGustMPH,Humidity,HourlyPrecipIn,Conditions,Clouds,dailyrainin,SoftwareType,DateUTC
2013-05-31 00:06:00,76.1,-31.2,29.63,SE,135,2.2,-999.0,1,-99.99,,,0.00,Acu-Link.com,2013-05-31 05:06:00,
2013-05-31 00:21:00,76.1,-31.2,29.62,NNW,337,2.2,-999.0,1,-99.99,,,0.00,Acu-Link.com,2013-05-31 05:21:00,
2013-05-31 00:36:00,76.1,-31.2,29.62,SE,135,4.7,-999.0,1,-99.99,,,0.00,Acu-Link.com,2013-05-31 05:36:00,
2013-05-31 00:51:00,76.1,-31.2,29.62,SW,225,2.2,-999.0,1,-99.99,,,0.00,Acu-Link.com,2013-05-31 05:51:00,
2013-05-31 01:07:00,75.9,-31.3,29.62,SE,135,4.7,-999.0,1,-99.99,,,0.00,Acu-Link.com,2013-05-31 06:07:00,
2013-05-31 01:22:00,75.9,-31.3,29.62,ESE,112,4.2,-999.0,1,-99.99,,,0.00,Acu-Link.com,2013-05-31 06:22:00,
2013-05-31 01:37:00,75.9,-31.3,29.61,SSE,157,2.2,-999.0,1,-99.99,,,0.00,Acu-Link.com,2013-05-31 06:37:00,
2013-05-31 01:52:00,75.7,-31.4,29.60,East,90,2.7,-999.0,1,-99.99,,,0.00,Acu-Link.com,2013-05-31 06:52:00,
2013-05-31 02:08:00,75.4,74.8,29.60,East,90,2.7,-999.0,98,-99.99,,,0.00,Acu-Link.com,2013-05-31 07:08:00,
2013-05-31 02:23:00,75.2,-31.7,29.60,South,180,5.8,-999.0,1,-99.99,,,0.00,Acu-Link.com,2013-05-31 07:23:00,
2013-05-31 02:39:00,75.0,-31.8,29.60,SSE,157,4.7,-999.0,1,-99.99,,,0.00,Acu-Link.com,2013-05-31 07:39:00,
2013-05-31 02:54:00,75.0,-31.8,29.59,NE,45,2.7,-999.0,1,-99.99,,,0.00,Acu-Link.com,2013-05-31 07:54:00,
2013-05-31 03:10:00,75.0,-31.8,29.59,ESE,112,3.2,-999.0,1,-99.99,,,0.00,Acu-Link.com,2013-05-31 08:10:00,
2013-05-31 03:26:00,75.0,-31.8,29.59,South,180,2.7,-999.0,1,-99.99,,,0.00,Acu-Link.com,2013-05-31 08:26:00,
2013-05-31 03:41:00,75.0,-31.8,29.58,East,90,1.7,-999.0,1,-99.99,,,0.00,Acu-Link.com,2013-05-31 08:41:00,
2013-05-31 03:56:00,75.0,74.4,29.59,ESE,112,3.7,-999.0,98,-99.99,,,0.00,Acu-Link.com,2013-05-31 08:56:00,
2013-05-31 04:11:00,75.2,-31.7,29.59,WSW,247,1.1,-999.0,1,-99.99,,,0.00,Acu-Link.com,2013-05-31 09:11:00,
2013-05-31 04:26:00,75.2,-31.7,29.59,NNE,22,2.2,-999.0,1,-99.99,,,0.00,Acu-Link.com,2013-05-31 09:26:00,
2013-05-31 04:41:00,75.2,-31.7,29.60,SSE,157,3.2,-999.0,1,-99.99,,,0.00,Acu-Link.com,2013-05-31 09:41:00,
2013-05-31 04:56:00,75.6,-31.5,29.60,East,90,2.2,-999.0,1,-99.99,,,0.00,Acu-Link.com,2013-05-31 09:56:00,
2013-05-31 05:11:00,75.4,-31.6,29.60,SSE,157,3.7,-999.0,1,-99.99,,,0.00,Acu-Link.com,2013-05-31 10:11:00,
2013-05-31 05:27:00,75.4,-31.6,29.61,ENE,67,2.7,-999.0,1,-99.99,,,0.00,Acu-Link.com,2013-05-31 10:27:00,
2013-05-31 05:42:00,75.6,-31.5,29.61,East,90,3.2,-999.0,1,-99.99,,,0.00,Acu-Link.com,2013-05-31 10:42:00,
2013-05-31 05:57:00,75.7,-31.4,29.62,ESE,112,3.7,-999.0,1,-99.99,,,0.00,Acu-Link.com,2013-05-31 10:57:00,
2013-05-31 06:12:00,75.9,-31.3,29.63,SSE,157,1.1,-999.0,1,-99.99,,,0.00,Acu-Link.com,2013-05-31 11:12:00,
2013-05-31 06:28:00,75.7,-31.4,29.63,East,90,2.7,-999.0,1,-99.99,,,0.00,Acu-Link.com,2013-05-31 11:28:00,
2013-05-31 06:43:00,75.7,-31.4,29.63,East,90,2.2,-999.0,1,-99.99,,,0.00,Acu-Link.com,2013-05-31 11:43:00,
2013-05-31 06:58:00,75.7,-31.4,29.64,East,90,2.2,-999.0,1,-99.99,,,0.00,Acu-Link.com,2013-05-31 11:58:00,
2013-05-31 07:13:00,75.9,-31.3,29.64,East,90,2.7,-999.0,1,-99.99,,,0.00,Acu-Link.com,2013-05-31 12:13:00,
2013-05-31 07:28:00,77.0,-30.6,29.64,East,90,3.2,-999.0,1,-99.99,,,0.00,Acu-Link.com,2013-05-31 12:28:00,
2013-05-31 07:44:00,77.5,-30.3,29.64,ESE,112,3.7,-999.0,1,-99.99,,,0.00,Acu-Link.com,2013-05-31 12:44:00,
2013-05-31 07:59:00,79.7,65.5,29.64,SSE,157,3.2,-999.0,62,-99.99,,,0.00,Acu-Link.com,2013-05-31 12:59:00,
2013-05-31 08:14:00,82.8,-27.2,29.64,SSE,157,3.2,-999.0,1,-99.99,,,0.00,Acu-Link.com,2013-05-31 13:14:00,
2013-05-31 08:30:00,83.3,-26.9,29.65,South,180,6.3,-999.0,1,-99.99,,,0.00,Acu-Link.com,2013-05-31 13:30:00,
2013-05-31 08:45:00,84.0,-26.5,29.65,SSE,157,5.3,-999.0,1,-99.99,,,0.00,Acu-Link.com,2013-05-31 13:45:00,
2013-05-31 09:01:00,86.9,-24.8,29.65,SE,135,3.7,-999.0,1,-99.99,,,0.00,Acu-Link.com,2013-05-31 14:01:00,
2013-05-31 09:16:00,86.0,-25.3,29.65,ESE,112,4.7,-999.0,1,-99.99,,,0.00,Acu-Link.com,2013-05-31 14:16:00,
2013-05-31 09:31:00,88.0,-24.1,29.64,SSE,157,4.7,-999.0,1,-99.99,,,0.00,Acu-Link.com,2013-05-31 14:31:00,
2013-05-31 09:46:00,88.9,-23.6,29.64,SSE,157,2.2,-999.0,1,-99.99,,,0.00,Acu-Link.com,2013-05-31 14:46:00,
2013-05-31 10:01:00,88.7,-23.7,29.64,ESE,112,4.2,-999.0,1,-99.99,,,0.00,Acu-Link.com,2013-05-31 15:01:00,
2013-05-31 10:16:00,88.0,-24.1,29.63,SSE,157,7.8,-999.0,1,-99.99,,,0.00,Acu-Link.com,2013-05-31 15:16:00,
2013-05-31 10:31:00,88.7,-23.7,29.62,SSW,202,4.7,-999.0,1,-99.99,,,0.00,Acu-Link.com,2013-05-31 15:31:00,
2013-05-31 10:47:00,91.2,-22.2,29.62,SW,225,1.7,-999.0,1,-99.99,,,0.00,Acu-Link.com,2013-05-31 15:47:00,
2013-05-31 11:02:00,92.5,-21.4,29.63,ESE,112,5.8,-999.0,1,-99.99,,,0.00,Acu-Link.com,2013-05-31 16:02:00,
2013-05-31 11:17:00,90.3,-22.7,29.64,South,180,6.8,-999.0,1,-99.99,,,0.00,Acu-Link.com,2013-05-31 16:17:00,
2013-05-31 11:32:00,92.5,-21.4,29.64,SW,225,8.3,-999.0,1,-99.99,,,0.00,Acu-Link.com,2013-05-31 16:32:00,
2013-05-31 11:48:00,91.9,-21.8,29.64,SSW,202,6.8,-999.0,1,-99.99,,,0.00,Acu-Link.com,2013-05-31 16:48:00,
2013-05-31 12:03:00,91.6,-22.0,29.65,SE,135,5.3,-999.0,1,-99.99,,,0.00,Acu-Link.com,2013-05-31 17:03:00,
2013-05-31 12:18:00,89.2,-23.4,29.65,WSW,247,7.3,-999.0,1,-99.99,,,0.00,Acu-Link.com,2013-05-31 17:18:00,
2013-05-31 12:34:00,90.3,-22.7,29.65,South,180,5.3,-999.0,1,-99.99,,,0.00,Acu-Link.com,2013-05-31 17:34:00,
2013-05-31 12:49:00,91.2,-22.2,29.64,South,180,5.3,-999.0,1,-99.99,,,0.00,Acu-Link.com,2013-05-31 17:49:00,
2013-05-31 13:04:00,91.0,-22.3,29.64,SW,225,9.9,-999.0,1,-99.99,,,0.00,Acu-Link.com,2013-05-31 18:04:00,
2013-05-31 13:19:00,91.0,-22.3,29.64,SSW,202,5.3,-999.0,1,-99.99,,,0.00,Acu-Link.com,2013-05-31 18:19:00,
2013-05-31 13:34:00,94.6,-20.2,29.64,SSE,157,9.4,-999.0,1,-99.99,,,0.00,Acu-Link.com,2013-05-31 18:34:00,
2013-05-31 13:49:00,90.9,-22.4,29.64,South,180,9.4,-999.0,1,-99.99,,,0.00,Acu-Link.com,2013-05-31 18:49:00,
2013-05-31 14:04:00,91.6,-22.0,29.64,SSE,157,10.9,-999.0,1,-99.99,,,0.00,Acu-Link.com,2013-05-31 19:04:00,
2013-05-31 14:20:00,90.1,-22.9,29.63,SSW,202,5.8,-999.0,1,-99.99,,,0.00,Acu-Link.com,2013-05-31 19:20:00,
2013-05-31 14:35:00,92.5,-21.4,29.63,SSW,202,5.8,-999.0,1,-99.99,,,0.00,Acu-Link.com,2013-05-31 19:35:00,
2013-05-31 14:50:00,90.5,-22.6,29.62,SSW,202,7.3,-999.0,1,-99.99,,,0.00,Acu-Link.com,2013-05-31 19:50:00,
2013-05-31 15:05:00,90.1,-22.9,29.63,ESE,112,10.9,-999.0,1,-99.99,,,0.00,Acu-Link.com,2013-05-31 20:05:00,
2013-05-31 15:20:00,89.2,-23.4,29.62,SSW,202,4.2,-999.0,1,-99.99,,,0.00,Acu-Link.com,2013-05-31 20:20:00,
2013-05-31 15:35:00,91.8,-21.9,29.62,SSE,157,7.3,-999.0,1,-99.99,,,0.00,Acu-Link.com,2013-05-31 20:35:00,
2013-05-31 15:50:00,92.3,-21.6,29.62,South,180,5.3,-999.0,1,-99.99,,,0.00,Acu-Link.com,2013-05-31 20:50:00,
2013-05-31 16:05:00,90.5,-22.6,29.61,SSW,202,5.3,-999.0,1,-99.99,,,0.00,Acu-Link.com,2013-05-31 21:05:00,
2013-05-31 16:20:00,90.0,-22.9,29.61,SW,225,5.8,-999.0,1,-99.99,,,0.00,Acu-Link.com,2013-05-31 21:20:00,
2013-05-31 16:35:00,89.4,-23.3,29.61,South,180,3.7,-999.0,1,-99.99,,,0.00,Acu-Link.com,2013-05-31 21:35:00,
2013-05-31 16:50:00,89.4,-23.3,29.60,South,180,5.8,-999.0,1,-99.99,,,0.00,Acu-Link.com,2013-05-31 21:50:00,
2013-05-31 17:05:00,89.2,-23.4,29.61,SSE,157,3.7,-999.0,1,-99.99,,,0.00,Acu-Link.com,2013-05-31 22:05:00,
2013-05-31 17:21:00,87.6,-24.3,29.60,SSW,202,4.7,-999.0,1,-99.99,,,0.00,Acu-Link.com,2013-05-31 22:21:00,
2013-05-31 17:51:00,87.1,-24.6,29.60,SE,135,11.4,-999.0,1,-99.99,,,0.00,Acu-Link.com,2013-05-31 22:51:00,
2013-05-31 18:06:00,86.7,-24.9,29.60,SSE,157,6.8,-999.0,1,-99.99,,,0.00,Acu-Link.com,2013-05-31 23:06:00,
2013-05-31 18:21:00,86.4,-25.0,29.60,SSW,202,7.3,-999.0,1,-99.99,,,0.00,Acu-Link.com,2013-05-31 23:21:00,
2013-05-31 18:36:00,85.3,-25.7,29.60,SSW,202,3.2,-999.0,1,-99.99,,,0.00,Acu-Link.com,2013-05-31 23:36:00,
2013-05-31 18:52:00,84.9,-25.9,29.60,South,180,4.7,-999.0,1,-99.99,,,0.00,Acu-Link.com,2013-05-31 23:52:00,
2013-05-31 19:07:00,84.4,-26.2,29.60,SSE,157,5.8,-999.0,1,-99.99,,,0.00,Acu-Link.com,2013-06-01 00:07:00,
2013-05-31 19:22:00,83.8,-26.6,29.60,SSW,202,1.7,-999.0,1,-99.99,,,0.00,Acu-Link.com,2013-06-01 00:22:00,
2013-05-31 19:37:00,83.3,-26.9,29.61,SW,225,2.7,-999.0,1,-99.99,,,0.00,Acu-Link.com,2013-06-01 00:37:00,
2013-05-31 19:53:00,82.8,-27.2,29.61,South,180,3.2,-999.0,1,-99.99,,,0.00,Acu-Link.com,2013-06-01 00:53:00,
2013-05-31 20:08:00,81.9,-27.7,29.60,SSW,202,3.2,-999.0,1,-99.99,,,0.00,Acu-Link.com,2013-06-01 01:08:00,
2013-05-31 20:23:00,81.3,-28.1,29.60,SE,135,4.7,-999.0,1,-99.99,,,0.00,Acu-Link.com,2013-06-01 01:23:00,
2013-05-31 20:39:00,81.1,-28.2,29.60,SSE,157,3.2,-999.0,1,-99.99,,,0.00,Acu-Link.com,2013-06-01 01:39:00,
2013-05-31 20:54:00,80.8,-28.4,29.60,SSW,202,2.7,-999.0,1,-99.99,,,0.00,Acu-Link.com,2013-06-01 01:54:00,
2013-05-31 21:09:00,80.1,-28.8,29.60,SE,135,1.1,-999.0,1,-99.99,,,0.00,Acu-Link.com,2013-06-01 02:09:00,
2013-05-31 21:24:00,80.1,-28.8,29.59,ESE,112,3.7,-999.0,1,-99.99,,,0.00,Acu-Link.com,2013-06-01 02:24:00,
2013-05-31 21:40:00,79.9,-28.9,29.59,South,180,1.7,-999.0,1,-99.99,,,0.00,Acu-Link.com,2013-06-01 02:40:00,
2013-05-31 21:55:00,79.9,-28.9,29.60,South,180,3.7,-999.0,1,-99.99,,,0.00,Acu-Link.com,2013-06-01 02:55:00,
2013-05-31 22:11:00,79.3,-29.3,29.59,South,180,5.8,-999.0,1,-99.99,,,0.00,Acu-Link.com,2013-06-01 03:11:00,
2013-05-31 22:26:00,79.0,-29.4,29.59,ESE,112,5.3,-999.0,1,-99.99,,,0.00,Acu-Link.com,2013-06-01 03:26:00,
2013-05-31 22:41:00,78.6,-29.7,29.59,SSE,157,2.7,-999.0,1,-99.99,,,0.00,Acu-Link.com,2013-06-01 03:41:00,
2013-05-31 22:56:00,78.3,-29.9,29.59,SSW,202,0.0,-999.0,1,-99.99,,,0.00,Acu-Link.com,2013-06-01 03:56:00,
2013-05-31 23:11:00,77.9,-30.1,29.59,South,180,1.7,-999.0,1,-99.99,,,0.00,Acu-Link.com,2013-06-01 04:11:00,
2013-05-31 23:26:00,77.7,-30.2,29.60,SW,225,2.2,-999.0,1,-99.99,,,0.00,Acu-Link.com,2013-06-01 04:26:00,
2013-05-31 23:42:00,77.7,-30.2,29.60,South,180,1.1,-999.0,1,-99.99,,,0.00,Acu-Link.com,2013-06-01 04:42:00,
2013-05-31 23:57:00,77.7,-30.2,29.61,ENE,67,2.2,-999.0,1,-99.99,,,0.00,Acu-Link.com,2013-06-01 04:57:00,